Regional Weather Roundup
Issued by NWS

Home | Current Version | Previous Version | Graphics & Text | Print | Product List | Glossary On
Versions: 1 2 3 4 5 6 7 8 9 10 11 12 13 14 15 16 17 18 19 20 21 22 23 24 25 26 27 28 29 30 31 32 33 34 35 36 37 38 39 40 41 42 43 44 45 46 47 48 49 50
000
ASUS43 KIND 262009
RWRIN

WEATHER ROUNDUP FOR INDIANA
NATIONAL WEATHER SERVICE INDIANAPOLIS IN
300 PM EST FRI DEC 26 2014

NOTE: "FAIR" INDICATES FEW OR NO CLOUDS BELOW 12,000 FEET WITH NO
SIGNIFICANT WEATHER AND/OR OBSTRUCTIONS TO VISIBILITY.

* - STATION DOES NOT REPORT WEATHER SUCH AS PRECIPITATION OR FOG.

+ - STATION NOT QUALITY CONTROLLED BY THE NATIONAL WEATHER SERVICE.
    USE DATA WITH CAUTION...ESPECIALLY DEWPOINT AND RELATIVE
    HUMIDITY OBSERVATIONS.

INZ001>003-010>013-019-020-262100-
NORTHWEST INDIANA

CITY           SKY/WX    TMP DP  RH WIND       PRES   REMARKS
GARY /AIRPORT/ PTSUNNY   50  36  57 SW14      30.02S
KNOX *+        PTSUNNY   51  37  57 SW15      30.03S
LA PORTE +     PTSUNNY   51  41  68 SW12      30.03S
MICHIGAN CITY+ PTSUNNY   50  34  53 SW12      30.02F
MONTICELLO +   FAIR      51  42  69 SW13      30.04F
RENSSELAER +   MOSUNNY   50  45  81 SW16      30.03F
VALPARAISO     PTSUNNY   50  39  66 SW14      30.03S

$$

LMZ046-743>745-262100-
SOUTHERN LAKE MICHIGAN

STATION/POSITION TIME  TEMP WIND        PRES
                       AIR  DIR/SP/G
                 (UTC) (F)  (DEG/KT/KT) (MB)
MICHIGAN CITY    2000   48  180/ 13/ 15   N/A

$$

INZ004-005-014>016-021>024-262100-
NORTH CENTRAL INDIANA

CITY           SKY/WX    TMP DP  RH WIND       PRES   REMARKS
ELKHART        SUNNY     50  36  57 S10       30.04F
GOSHEN         PTSUNNY   49  39  68 SW14      30.05S
LOGANSPORT +   MOSUNNY   50  39  66 SW12      30.06F
PERU/GRISSOM   MOSUNNY   51  47  83 SW12      30.05F
ROCHESTER +    CLOUDY    52  43  71 SW9       30.05F
SOUTH BEND     MOSUNNY   51  39  63 SW17      30.04F
WARSAW +       PTSUNNY   50  37  62 SW7       30.06S

$$

INZ006>009-017-018-025>027-262100-
NORTHEAST INDIANA

CITY           SKY/WX    TMP DP  RH WIND       PRES   REMARKS
ANGOLA *+      SUNNY     46  37  71 SW10      30.05S
AUBURN +       MOSUNNY   50  37  62 SW7       30.08S
FORT WAYNE     PTSUNNY   48  40  73 SW14      30.09S
HUNTINGTON +   MOSUNNY   48  40  73 SW9       30.07F

$$

INZ028-029-035-036-043>045-051>053-262100-
WEST CENTRAL INDIANA

CITY           SKY/WX    TMP DP  RH WIND       PRES   REMARKS
CRAWFORDSVL +  MOSUNNY   48  36  61 S12       30.08
GREENCASTLE +  PTSUNNY   50  36  57 S7        30.10S
LAFAYETTE      SUNNY     50  40  68 SW13      30.06F
TERRE HAUTE    PTSUNNY   52  41  66 S13       30.10S

$$

INZ030>032-037>040-046>048-054>057-064-065-262100-
CENTRAL INDIANA

CITY           SKY/WX    TMP DP  RH WIND       PRES   REMARKS
ANDERSON       SUNNY     48  39  71 S15       30.11F
CP ATTERBURY + CLOUDY    54  39  58 MISG      30.13S
COLUMBUS       PTSUNNY   50  41  71 S15       30.14S
FRANKFORT +    SUNNY     49  42  77 S9        30.09S
GREENWOOD *+   PTSUNNY   52  37  58 SW10G17   30.11F
INDIANAPOLIS   PTSUNNY   50  40  68 SW10      30.10S
-EAGLE CREEK   MOSUNNY   51  39  63 SW10G20   30.09S
KOKOMO *+      MOSUNNY  N/A N/A N/A SW14      30.06F
MARION +       SUNNY     49  39  70 SW14      30.08F
MT COMFORT *+  PTSUNNY   50  34  53 SW7       30.11S
SHELBYVILLE    PTSUNNY   53  41  63 S15       30.11F
ZIONSVILLE +   MOSUNNY   51  39  64 S10       30.09S

$$

INZ033-034-041-042-049-050-058-059-262100-
EAST CENTRAL INDIANA

CITY           SKY/WX    TMP DP  RH WIND       PRES   REMARKS
MUNCIE         MOSUNNY   49  39  68 S14       30.09F

$$

INZ060-061-067>069-081>083-085>088-262100-
SOUTHWEST INDIANA

CITY           SKY/WX    TMP DP  RH WIND       PRES   REMARKS
EVANSVILLE     SUNNY     57  42  57 SW13      30.16F
HUNTINGBURG *+ PTSUNNY   54  41  62 SW12      30.17S
WASHINGTON +   MOSUNNY   54  38  56 S9        30.13F

$$

INZ062-063-066-070>080-084-089>092-262100-
SOUTH CENTRAL AND SOUTHEAST INDIANA

CITY           SKY/WX    TMP DP  RH WIND       PRES   REMARKS
BLOOMINGTON    PTSUNNY   53  42  66 SW10G21   30.12S
NORTH VERNON + SUNNY     52  37  58 S12       30.16
SEYMOUR +      PTSUNNY   54  39  58 S10       30.15

$$




USA.gov is the U.S. government's official web portal to all federal, state and local government web resources and services.